This is the latest recevied weather packets stored in our database for station/object K5UTC. If no packets are shown the sender has not sent any weather packets the latest 1 day(s).
| Time | Temp. | Humidity | Pressure | Rain* | Wind** | Luminosity | Snow |
|---|---|---|---|---|---|---|---|
| 1778011801 | 23.33° C | 62% | 1010.9 hPa | 0 mm | 0 m/s | 101 W/m² | - |
| 1778011499 | 23.33° C | 58% | 1011 hPa | 0 mm | 0 m/s | 89 W/m² | - |
| 1778011194 | 23.89° C | 59% | 1011.1 hPa | 0 mm | 0 m/s | 93 W/m² | - |
| 1778010891 | 23.89° C | 59% | 1010.9 hPa | 0 mm | 0 m/s | 110 W/m² | - |
| 1778010589 | 23.89° C | 59% | 1011 hPa | 0 mm | 0.89 m/s, 155° | 106 W/m² | - |
| 1778010286 | 24.44° C | 52% | 1011 hPa | 0 mm | 0 m/s | 123 W/m² | - |
| 1778009986 | 24.44° C | 52% | 1010.7 hPa | 0 mm | 0 m/s | 152 W/m² | - |
| 1778009684 | 24.44° C | 52% | 1010.5 hPa | 0 mm | 0 m/s | 173 W/m² | - |
| 1778009381 | 24.44° C | 50% | 1011 hPa | 0 mm | 0.89 m/s, 134° | 167 W/m² | - |
| 1778009079 | 25° C | 53% | 1011.6 hPa | 0 mm | 0 m/s | 170 W/m² | - |
| 1778008776 | 25° C | 50% | 1011.7 hPa | 0 mm | 0.45 m/s, 145° | 157 W/m² | - |
| 1778008475 | 25° C | 49% | 1011.6 hPa | 0 mm | 0 m/s | 169 W/m² | - |
| 1778008172 | 25° C | 50% | 1011.8 hPa | 0 mm | 0 m/s | 222 W/m² | - |
| 1778007867 | 25° C | 47% | 1012 hPa | 0 mm | 0.45 m/s, 186° | 212 W/m² | - |
| 1778007562 | 25.56° C | 47% | 1011.9 hPa | 0 mm | 0.89 m/s, 145° | 211 W/m² | - |
| 1778007260 | 25.56° C | 46% | 1011.9 hPa | 0 mm | 0 m/s | 286 W/m² | - |
| 1778006956 | 26.11° C | 44% | 1012.1 hPa | 0 mm | 0.89 m/s, 193° | 328 W/m² | - |
| 1778006653 | 26.67° C | 44% | 1012.1 hPa | 0 mm | 0.89 m/s, 176° | 401 W/m² | - |
| 1778006350 | 26.67° C | 42% | 1012.2 hPa | 0 mm | 1.34 m/s, 181° | 429 W/m² | - |
| 1778006047 | 26.67° C | 48% | 1012.3 hPa | 0 mm | 0.45 m/s, 172° | 505 W/m² | - |
| 1778005743 | 27.22° C | 40% | 1012.2 hPa | 0 mm | 1.79 m/s, 39° | 446 W/m² | - |
| 1778005440 | 27.22° C | 42% | 1012.2 hPa | 0 mm | 0.89 m/s, 176° | 759 W/m² | - |
| 1778005136 | 27.22° C | 41% | 1012.3 hPa | 0 mm | 1.79 m/s, 187° | 782 W/m² | - |
| 1778004834 | 26.67° C | 44% | 1012.3 hPa | 0 mm | 2.24 m/s, 225° | 775 W/m² | - |
| 1778004531 | 26.67° C | 46% | 1012.2 hPa | 0 mm | 0 m/s | 544 W/m² | - |
* Rain latest hour (hover to see other rain measurements)
** Current wind speed in m/s (hover to see current wind gust speed)